Language selection

Weather shortcuts

Whitefish Bay: Past 24 Hour Conditions

 

Caribou Island

03:00 AM EDT 24 June 2024
Disclaimer

This table is a summary of hourly weather conditions for the past 24 hours.
Please note that these observations might not always be representative of weather conditions over their associated marine area.

Date / Time
(EDT)
Wind(knots) Conditions Visibility(km) Pressure(kPa) Air tempC) Relative humidity(%) Dew pointC)
24 June 2024
3:00 WSW 6 N/A N/A 101.3 9 98 9
2:00 WNW 11 N/A N/A 101.2 9 96 8
1:00 W 11 N/A N/A 101.2 9 97 8
0:00 WNW 4 N/A N/A 101.1 9 97 9
23 June 2024
23:00 W 4 N/A N/A 101.1 9 96 9
22:00 WSW 2 N/A N/A 101.1 10 96 9
21:00 NNW 5 N/A N/A 101.1 12 86 10
20:00 NNW 9 N/A N/A 101.0 12 88 10
19:00 NNW 8 N/A N/A 101.0 11 92 9
18:00 N 10 N/A N/A 100.9 12 85 9
17:00 NW 8 N/A N/A 100.8 12 84 10
16:00 NW 9 N/A N/A 100.8 11 89 9
15:00 NW 12 gusts 17 N/A N/A 100.7 10 91 9
14:00 NW 9 N/A N/A 100.7 12 86 10
13:00 WNW 15 N/A N/A 100.6 11 87 9
12:00 NW 7 N/A N/A 100.6 13 86 11
11:00 NW 9 N/A N/A 100.5 14 83 11
10:00 NW 8 N/A N/A 100.5 13 84 11
9:00 NNW 8 N/A N/A 100.5 12 93 11
8:00 N 9 N/A N/A 100.5 10 92 9
7:00 NNW 9 N/A N/A 100.4 10 94 9
6:00 N 10 gusts 15 N/A N/A 100.4 11 90 10
5:00 NNW 13 N/A N/A 100.4 10 93 9
4:00 N 10 gusts 15 N/A N/A 100.4 12 91 10
3:00 N 9 N/A N/A 100.5 12 89 10

Zoom-in to make a selection

Map of Great Lakes - Lake Superior marine weather areas Mid Superior - 45001 East Superior - 45004 West Superior - 45006 Slate Island - 45136 Lake Of the Woods - 45148 Kenora Airport Royal Island Armstrong Airport Caribou Island Marathon Airport Pukaskwa National Park Thunder Bay Airport Welcome Island Little Flatland Island Sault Ste. Marie Airport Wawa Airport
Legend:
buoy Buoy
land station Land Station

Great Lakes - Lake Superior Area

Another Region

Features

New Predicting and Alerting Coastal Flooding Program

Find out about coastal flooding coverage, forecasts and warnings in your region

Date modified: